Location: Breungeshain
(50.5000°N, 9.2000°E)
Time: 20:42:09
(UTC+00:00)

ISS - Pass Details

Date: 24 May 2017
Orbit: 401 x 408 km, 51.6° (Epoch: 25 June)

Event Time Altitude Azimuth Distance (km) Brightness Sun altitude
Rises 23:51:48 0° 274° (W) 2,338 0.0 -18.4°
Reaches altitude 10° 23:53:54 10° 276° (W) 1,475 -1.0 -18.3°
Maximum altitude 23:57:12 70° 1° (N) 439 -3.6 -18.3°
Drops below altitude 10° 00:00:29 10° 86° (E) 1,470 -0.8 -18.2°
Sets 00:02:34 0° 89° (E) 2,328 0.2 -18.1°
